FW2321 Weather Reports


Display with metric or nautical units.
time (UTC)temp
F
wind
direction
speed
MPH
gust
MPH
rain 1hr
in
rain 24hr
in
rain mn
in
humidity
%
barometer
mb
20260902010052 79 0 0.0 0.0 0.00 0.02 0.02 97 1013.0
20260902005537 79 0 0.0 0.0 0.00 0.02 0.02 96 1013.0
20260902005037 79 0 0.0 0.0 0.00 0.02 0.02 96 1013.0
20260902004601 79 0 0.0 0.0 0.00 0.02 0.02 95 1012.8
20260902004036 80 0 0.0 0.0 0.00 0.02 0.02 95 1013.0
20260902003538 80 0 0.0 0.0 0.00 0.02 0.02 95 1012.9
20260902003101 80 0 0.0 0.0 0.00 0.02 0.02 95 1012.8
20260902002536 80 0 0.0 2.0 0.00 0.02 0.02 95 1012.8
20260902002039 80 0 0.0 2.0 0.00 0.02 0.02 94 1013.0
20260902001556 81 0 0.0 1.0 0.00 0.02 0.02 95 1012.8
20260902001035 81 0 0.0 0.0 0.00 0.02 0.02 94 1012.8
20260902000535 81 0 0.0 0.0 0.00 0.02 0.02 94 1012.7
20260902000056 81 0 0.0 1.0 0.00 0.02 0.02 94 1012.7
20260901235536 81 0 0.0 1.0 0.00 0.02 0.02 94 1012.8
20260901235036 81 0 0.0 1.0 0.00 0.02 0.02 93 1012.8
20260901234609 82 180 0.0 1.0 0.00 0.02 0.02 92 1012.7
20260901234037 81 0 0.0 2.0 0.00 0.02 0.02 92 1013.0
20260901233538 82 0 0.0 2.0 0.00 0.02 0.02 92 1012.8
20260901233109 82 180 1.0 2.0 0.00 0.02 0.02 91 1012.8
20260901232536 82 0 0.0 3.0 0.00 0.02 0.02 91 1012.7
20260901232038 82 0 0.0 4.0 0.00 0.02 0.02 91 1012.5
20260901231600 82 180 1.0 5.0 0.00 0.02 0.02 91 1012.5
20260901231032 82 180 2.0 5.0 0.00 0.02 0.02 90 1012.1
20260901230536 82 168 3.0 5.0 0.00 0.02 0.02 89 1012.2
20260901230057 82 250 1.0 2.0 0.00 0.02 0.02 90 1012.5
20260901225535 82 344 0.0 3.0 0.00 0.02 0.02 88 1012.8
20260901225033 82 0 0.0 3.0 0.00 0.02 0.02 88 1012.9
20260901224556 82 345 1.0 3.0 0.00 0.02 0.02 89 1013.1
20260901224033 82 348 0.0 2.0 0.00 0.02 0.02 89 1013.1
20260901223536 82 0 0.0 2.0 0.00 0.02 0.02 90 1013.1
20260901223057 81 0 0.0 3.0 0.00 0.02 0.02 91 1013.1
20260901222536 81 0 1.0 3.0 0.00 0.02 0.02 90 1013.2
20260901222035 82 0 1.0 3.0 0.00 0.02 0.02 90 1013.4
20260901221618 82 300 0.0 3.0 0.00 0.02 0.02 89 1013.2
20260901221036 82 299 0.0 3.0 0.00 0.02 0.02 88 1013.3
20260901220532 82 299 0.0 3.0 0.00 0.02 0.02 87 1013.3
20260901220105 82 0 0.0 3.0 0.00 0.02 0.02 88 1013.3
20260901215535 82 298 0.0 3.0 0.00 0.02 0.02 88 1013.3
20260901215036 82 0 0.0 3.0 0.00 0.02 0.02 87 1013.2
20260901214549 82 0 0.0 6.0 0.00 0.02 0.02 87 1013.1
20260901214035 82 0 1.0 6.0 0.00 0.02 0.02 87 1013.2
20260901213536 82 336 2.0 6.0 0.00 0.02 0.02 87 1013.3
20260901213114 82 343 1.0 4.0 0.00 0.02 0.02 87 1013.2
20260901212536 82 317 2.0 4.0 0.00 0.02 0.02 87 1013.2
20260901212037 82 263 1.0 4.0 0.00 0.02 0.02 87 1013.3
20260901211554 82 0 1.0 4.0 0.00 0.02 0.02 87 1013.3
20260901211033 82 0 1.0 4.0 0.00 0.02 0.02 87 1013.5
20260901210535 82 281 1.0 7.0 0.00 0.02 0.02 86 1013.5
20260901210052 82 335 2.0 7.0 0.00 0.02 0.02 85 1013.5
20260901205540 82 312 1.0 5.0 0.00 0.02 0.02 87 1013.5
20260901205035 82 316 0.0 3.0 0.00 0.02 0.02 88 1013.4
20260901204556 82 306 1.0 6.0 0.00 0.02 0.02 88 1013.3
20260901204037 82 317 0.0 6.0 0.00 0.02 0.02 90 1013.4
20260901203536 81 271 0.0 7.0 0.01 0.02 0.02 90 1013.4
20260901203101 81 279 1.0 7.0 0.01 0.02 0.02 89 1013.5
20260901202533 81 286 2.0 6.0 0.01 0.02 0.02 91 1013.3
20260901202032 80 250 2.0 5.0 0.01 0.02 0.02 95 1013.5
20260901201603 80 247 1.0 4.0 0.01 0.02 0.02 96 1013.7
20260901201033 80 214 2.0 4.0 0.01 0.02 0.02 96 1014.0
20260901200535 80 0 0.0 6.0 0.01 0.02 0.02 97 1013.8
20260901200054 80 0 1.0 6.0 0.01 0.02 0.02 97 1014.0
20260901195539 80 276 1.0 4.0 0.01 0.02 0.02 97 1014.4
20260901195038 80 239 1.0 5.0 0.01 0.02 0.02 96 1014.4
20260901194548 80 277 0.0 5.0 0.01 0.02 0.02 96 1014.3
20260901194037 81 214 1.0 4.0 0.00 0.01 0.01 96 1014.0
20260901193533 81 227 1.0 3.0 0.00 0.01 0.01 95 1013.8
20260901193102 81 0 0.0 3.0 0.00 0.01 0.01 94 1013.8
20260901192536 81 0 0.0 3.0 0.00 0.01 0.01 93 1013.8
20260901192037 82 228 1.0 4.0 0.00 0.01 0.01 92 1013.8
20260901191558 82 0 1.0 4.0 0.00 0.01 0.01 91 1013.6
20260901191032 82 230 1.0 8.0 0.00 0.01 0.01 90 1014.2
20260901190536 83 216 2.0 8.0 0.00 0.01 0.01 89 1014.1
20260901190052 83 240 2.0 6.0 0.00 0.01 0.01 88 1014.6
20260901185537 83 203 2.0 6.0 0.00 0.01 0.01 88 1014.3
20260901185036 84 210 2.0 7.0 0.00 0.01 0.01 87 1014.1
20260901184556 84 231 2.0 8.0 0.00 0.01 0.01 87 1014.0
20260901184036 85 213 2.0 8.0 0.00 0.01 0.01 88 1014.1
20260901183535 85 287 2.0 8.0 0.00 0.01 0.01 87 1013.9
20260901183055 85 266 2.0 9.0 0.00 0.01 0.01 87 1014.0
20260901182533 85 219 3.0 9.0 0.00 0.01 0.01 87 1014.1
20260901182033 85 219 3.0 10.0 0.00 0.01 0.01 86 1014.1
20260901181553 85 202 3.0 10.0 0.00 0.01 0.01 88 1014.0
20260901181035 85 224 2.0 6.0 0.00 0.01 0.01 92 1014.1
20260901180535 84 275 1.0 6.0 0.00 0.01 0.01 92 1014.0
20260901180054 83 270 1.0 5.0 0.00 0.01 0.01 93 1014.1
20260901175536 83 235 1.0 5.0 0.00 0.01 0.01 94 1013.9
20260901175035 82 228 2.0 6.0 0.00 0.01 0.01 93 1013.9
20260901174600 82 208 1.0 6.0 0.00 0.01 0.01 92 1014.0
20260901174035 82 211 2.0 5.0 0.00 0.01 0.01 91 1014.1
20260901173535 83 261 1.0 5.0 0.00 0.01 0.01 93 1014.1
20260901173101 82 216 2.0 4.0 0.00 0.01 0.01 94 1014.1
20260901172538 82 0 1.0 6.0 0.00 0.01 0.01 94 1014.2
20260901172034 82 278 1.0 6.0 0.00 0.01 0.01 95 1014.3
20260901171607 81 205 1.0 7.0 0.00 0.01 0.01 95 1014.3
20260901171036 81 227 2.0 7.0 0.00 0.01 0.01 96 1014.4
20260901170534 81 210 2.0 5.0 0.00 0.01 0.01 97 1014.4
20260901170054 81 180 1.0 4.0 0.00 0.01 0.01 98 1014.4
20260901165534 80 0 1.0 5.0 0.00 0.01 0.01 99 1014.4
20260901165035 80 180 2.0 5.0 0.00 0.01 0.01 98 1014.5
20260901164550 80 179 2.0 4.0 0.01 0.01 0.01 98 1014.4
20260901164035 80 179 1.0 4.0 0.01 0.01 0.01 98 1014.3
20260901163532 80 177 1.0 4.0 0.01 0.01 0.01 98 1014.6
20260901163057 79 177 1.0 5.0 0.01 0.01 0.01 98 1014.3
20260901162536 79 0 0.0 6.0 0.01 0.01 0.01 97 1014.1
20260901162034 79 0 2.0 6.0 0.01 0.01 0.01 98 1014.5
20260901161554 79 140 0.0 4.0 0.01 0.01 0.01 97 1014.2
20260901161035 80 144 0.0 4.0 0.01 0.01 0.01 97 1014.7
20260901160537 80 144 1.0 4.0 0.01 0.01 0.01 97 1014.8
20260901160056 80 144 1.0 4.0 0.01 0.01 0.01 96 1014.4
20260901155541 80 100 0.0 7.0 0.01 0.01 0.01 95 1014.6
20260901155038 80 100 1.0 7.0 0.01 0.01 0.01 95 1014.0
20260901154600 80 207 4.0 7.0 0.00 0.00 0.00 94 1014.9
20260901154037 81 206 2.0 6.0 0.00 0.00 0.00 93 1014.6
20260901153538 81 213 1.0 5.0 0.00 0.00 0.00 93 1015.0
20260901153109 81 0 0.0 0.0 0.00 0.00 0.00 94 1014.8
20260901152534 81 0 0.0 0.0 0.00 0.00 0.00 93 1014.5
20260901152037 81 0 0.0 0.0 0.00 0.00 0.00 94 1014.5
20260901151558 81 0 0.0 0.0 0.00 0.00 0.00 93 1014.5
20260901151040 81 0 0.0 0.0 0.00 0.00 0.00 94 1014.6
20260901150535 80 0 0.0 0.0 0.00 0.00 0.00 93 1014.6
20260901150107 80 0 0.0 0.0 0.00 0.00 0.00 93 1014.6
20260901145540 81 0 0.0 0.0 0.00 0.00 0.00 93 1014.4
20260901145037 81 0 0.0 0.0 0.00 0.00 0.00 94 1014.4
20260901144601 80 0 0.0 2.0 0.00 0.00 0.00 94 1014.6
20260901144037 80 0 0.0 2.0 0.00 0.00 0.00 94 1014.6
20260901143539 80 0 0.0 0.0 0.00 0.00 0.00 96 1014.5
20260901143101 79 0 0.0 0.0 0.00 0.00 0.00 95 1014.3
20260901142533 79 0 0.0 0.0 0.00 0.00 0.00 95 1014.4
20260901142038 79 0 0.0 0.0 0.00 0.00 0.00 95 1014.4
20260901141559 79 0 0.0 0.0 0.00 0.00 0.00 96 1014.5
20260901141034 79 0 0.0 0.0 0.00 0.00 0.00 97 1014.4
20260901140535 78 0 0.0 0.0 0.00 0.00 0.00 98 1014.5
20260901140059 77 0 0.0 0.0 0.00 0.00 0.00 99 1014.5
20260901135537 77 0 0.0 0.0 0.00 0.00 0.00 99 1014.5
20260901135035 76 0 0.0 2.0 0.00 0.00 0.00 100 1014.4
20260901134601 76 0 0.0 3.0 0.00 0.00 0.00 100 1014.4
20260901134040 76 0 0.0 3.0 0.00 0.00 0.00 100 1014.5
20260901133535 75 0 0.0 3.0 0.00 0.00 0.00 100 1014.6
20260901133053 75 0 0.0 0.0 0.00 0.00 0.00 100 1014.4
20260901132535 75 0 0.0 0.0 0.00 0.00 0.00 100 1014.5
20260901132036 75 0 0.0 2.0 0.00 0.00 0.00 100 1014.4
20260901131605 75 0 0.0 2.0 0.00 0.00 0.00 100 1014.4
20260901131035 75 0 1.0 3.0 0.00 0.00 0.00 100 1014.4
20260901130534 74 0 0.0 3.0 0.00 0.00 0.00 100 1014.5
20260901130058 74 0 0.0 4.0 0.00 0.00 0.00 100 1014.3
20260901125540 74 0 1.0 4.0 0.00 0.00 0.00 100 1014.3
20260901125035 74 0 0.0 0.0 0.00 0.00 0.00 100 1014.3
20260901124600 73 0 0.0 0.0 0.00 0.00 0.00 100 1014.1
20260901124035 73 0 0.0 0.0 0.00 0.00 0.00 100 1014.2
20260901123535 73 0 0.0 0.0 0.00 0.00 0.00 100 1014.3
20260901123107 73 0 0.0 0.0 0.00 0.00 0.00 100 1014.4
20260901122533 73 0 0.0 0.0 0.00 0.00 0.00 100 1014.3
20260901122034 73 0 0.0 0.0 0.00 0.00 0.00 100 1014.1
20260901121552 72 0 0.0 0.0 0.00 0.00 0.00 100 1014.1
20260901121033 72 0 0.0 0.0 0.00 0.00 0.00 100 1014.1
20260901120535 71 0 0.0 0.0 0.00 0.00 0.00 100 1014.0
20260901120100 71 0 0.0 0.0 0.00 0.00 0.00 100 1013.9
20260901115536 71 0 0.0 0.0 0.00 0.00 0.00 100 1013.8
20260901115035 71 0 0.0 0.0 0.00 0.00 0.00 100 1013.8
20260901114605 70 0 0.0 0.0 0.00 0.00 0.00 100 1013.7
20260901114036 70 0 0.0 0.0 0.00 0.00 0.00 100 1013.9
20260901113537 70 0 0.0 0.0 0.00 0.00 0.00 100 1013.6
20260901113100 70 0 0.0 0.0 0.00 0.00 0.00 100 1013.4
20260901112534 70 0 0.0 0.0 0.00 0.00 0.00 100 1013.5
20260901112036 70 0 0.0 0.0 0.00 0.00 0.00 100 1013.5
20260901111602 70 0 0.0 0.0 0.00 0.00 0.00 100 1013.4
20260901111036 70 0 0.0 0.0 0.00 0.00 0.00 100 1013.4
20260901110535 70 0 0.0 0.0 0.00 0.00 0.00 100 1013.2
20260901110109 70 0 0.0 0.0 0.00 0.00 0.00 100 1013.2
20260901105535 70 0 0.0 0.0 0.00 0.06 0.00 100 1013.1
20260901105038 70 0 0.0 0.0 0.00 0.06 0.00 100 1013.1
20260901104555 70 0 0.0 0.0 0.00 0.06 0.00 100 1013.1
20260901104035 70 0 0.0 0.0 0.00 0.06 0.00 100 1013.0
20260901103535 70 0 0.0 0.0 0.00 0.06 0.00 100 1013.1
20260901103103 70 0 0.0 0.0 0.00 0.06 0.00 100 1013.1
20260901102535 70 0 0.0 0.0 0.00 0.06 0.00 100 1013.1
20260901102034 70 0 0.0 0.0 0.00 0.06 0.00 100 1013.1
20260901101551 70 0 0.0 0.0 0.00 0.06 0.00 100 1013.1
20260901101034 70 0 0.0 0.0 0.00 0.06 0.00 100 1013.2
20260901100534 71 0 0.0 0.0 0.00 0.06 0.00 100 1013.3
20260901100056 71 0 0.0 0.0 0.00 0.06 0.00 100 1013.2
20260901095534 71 0 0.0 0.0 0.00 0.08 0.00 100 1013.2
20260901095034 71 0 0.0 0.0 0.00 0.08 0.00 100 1013.1
20260901094553 71 0 0.0 0.0 0.00 0.08 0.00 100 1013.2
20260901094038 71 0 0.0 0.0 0.00 0.08 0.00 100 1013.1
20260901093535 71 0 0.0 0.0 0.00 0.08 0.00 100 1013.1
20260901093107 71 0 0.0 0.0 0.00 0.08 0.00 100 1013.3
20260901092540 71 0 0.0 0.0 0.00 0.08 0.00 100 1013.2
20260901092037 71 0 0.0 0.0 0.00 0.08 0.00 100 1013.2
20260901091601 71 0 0.0 0.0 0.00 0.08 0.00 100 1013.3
20260901091041 71 0 0.0 0.0 0.00 0.08 0.00 100 1013.3
20260901090536 71 0 0.0 0.0 0.00 0.08 0.00 100 1013.2
20260901090056 70 0 0.0 0.0 0.00 0.08 0.00 100 1013.2
20260901085534 70 0 0.0 0.0 0.00 0.08 0.00 100 1013.1
20260901085034 70 0 0.0 0.0 0.00 0.08 0.00 100 1013.2
20260901084548 70 0 0.0 0.0 0.00 0.08 0.00 100 1013.3
20260901084038 70 0 0.0 0.0 0.00 0.08 0.00 100 1013.2
20260901083535 70 0 0.0 0.0 0.00 0.08 0.00 100 1013.3
20260901083100 70 0 0.0 0.0 0.00 0.08 0.00 100 1013.2
20260901082533 70 0 0.0 0.0 0.00 0.08 0.00 100 1013.1
20260901082036 70 0 0.0 0.0 0.00 0.08 0.00 99 1013.2
20260901081554 70 0 0.0 0.0 0.00 0.08 0.00 99 1013.0
20260901081037 70 0 0.0 0.0 0.00 0.08 0.00 100 1013.0
20260901080537 70 0 0.0 0.0 0.00 0.08 0.00 100 1013.1
20260901080052 70 0 0.0 0.0 0.00 0.08 0.00 99 1013.1
20260901075535 71 0 0.0 0.0 0.00 0.08 0.00 99 1013.0
20260901075034 71 0 0.0 0.0 0.00 0.08 0.00 99 1013.2
20260901074558 71 0 0.0 0.0 0.00 0.08 0.00 99 1013.1
20260901074040 71 0 0.0 0.0 0.00 0.08 0.00 99 1013.0
20260901073538 71 0 0.0 0.0 0.00 0.08 0.00 99 1013.1
20260901073058 71 0 0.0 0.0 0.00 0.08 0.00 99 1013.1
20260901072538 72 0 0.0 0.0 0.00 0.08 0.00 99 1013.0
20260901072035 72 0 0.0 0.0 0.00 0.08 0.00 99 1013.1
20260901071600 72 0 0.0 0.0 0.00 0.08 0.00 99 1013.1
20260901071034 72 0 0.0 0.0 0.00 0.08 0.00 99 1013.0
20260901070536 73 0 0.0 0.0 0.00 0.08 0.00 99 1012.9
20260901070103 73 0 0.0 0.0 0.00 0.08 0.00 100 1013.0
20260901065537 73 0 0.0 0.0 0.00 0.08 0.00 100 1012.9
20260901065034 73 0 0.0 3.0 0.00 0.08 0.00 100 1012.9
20260901064554 73 0 0.0 3.0 0.00 0.08 0.00 100 1013.0
20260901064036 73 200 0.0 3.0 0.00 0.08 0.00 100 1013.0
20260901063536 73 0 0.0 4.0 0.00 0.08 0.00 100 1013.0
20260901063051 73 200 1.0 4.0 0.00 0.08 0.00 100 1013.0
20260901062538 73 200 1.0 4.0 0.00 0.08 0.00 100 1012.9
20260901062037 73 207 0.0 3.0 0.00 0.08 0.00 100 1013.0
20260901061549 72 0 0.0 3.0 0.00 0.08 0.00 100 1013.1
20260901061037 72 206 1.0 3.0 0.00 0.08 0.00 100 1013.2
20260901060540 72 205 1.0 4.0 0.00 0.08 0.00 100 1013.0
20260901060101 72 202 2.0 4.0 0.00 0.08 0.00 100 1013.1
20260901055534 71 200 0.0 3.0 0.00 0.08 0.00 100 1013.2
20260901055038 71 200 0.0 3.0 0.00 0.08 0.00 100 1013.1
20260901054554 70 201 0.0 2.0 0.00 0.08 0.00 100 1012.9
20260901054035 69 0 0.0 0.0 0.00 0.08 0.00 99 1013.0
20260901053537 69 0 0.0 0.0 0.00 0.08 0.00 99 1013.1
20260901053051 70 0 0.0 0.0 0.00 0.08 0.00 99 1013.0
20260901052534 70 0 0.0 0.0 0.00 0.08 0.00 99 1013.1
20260901052037 70 0 0.0 0.0 0.00 0.08 0.00 99 1013.1
20260901051609 70 0 0.0 0.0 0.00 0.08 0.00 99 1013.0
20260901051037 70 0 0.0 0.0 0.00 0.08 0.00 99 1013.0
20260901050538 70 0 0.0 0.0 0.00 0.08 0.00 99 1013.0
20260901050055 70 0 0.0 0.0 0.00 0.08 0.00 99 1013.1
20260901045534 70 0 0.0 0.0 0.00 0.08 0.08 99 1013.2
20260901045033 70 0 0.0 0.0 0.00 0.08 0.08 99 1013.1
20260901044551 70 0 0.0 0.0 0.00 0.08 0.08 99 1013.2
20260901044037 70 0 0.0 0.0 0.00 0.08 0.08 99 1013.1
20260901043537 70 0 0.0 0.0 0.00 0.08 0.08 99 1013.1
20260901043053 70 0 0.0 0.0 0.00 0.08 0.08 99 1013.2
20260901042540 70 0 0.0 0.0 0.00 0.08 0.08 99 1013.2
20260901042034 70 0 0.0 0.0 0.00 0.08 0.08 98 1013.0
20260901041608 71 0 0.0 0.0 0.00 0.08 0.08 98 1013.0
20260901041038 71 0 0.0 0.0 0.00 0.08 0.08 98 1013.0
20260901040536 71 0 0.0 0.0 0.00 0.08 0.08 98 1013.0
20260901040109 71 0 0.0 0.0 0.00 0.08 0.08 98 1013.1
20260901035537 72 0 0.0 0.0 0.00 0.08 0.08 98 1013.1
20260901035035 72 0 0.0 0.0 0.00 0.08 0.08 98 1013.2
20260901034555 72 0 0.0 0.0 0.00 0.08 0.08 98 1013.2
20260901034038 72 0 0.0 0.0 0.00 0.08 0.08 98 1013.2
20260901033538 72 0 0.0 0.0 0.00 0.08 0.08 97 1013.3
20260901033051 72 0 0.0 0.0 0.00 0.08 0.08 98 1013.4
20260901032536 72 0 0.0 0.0 0.00 0.08 0.08 97 1013.3
20260901032038 72 0 0.0 0.0 0.00 0.08 0.08 97 1013.4
20260901031556 72 0 0.0 0.0 0.00 0.08 0.08 97 1013.3
20260901031040 73 0 0.0 0.0 0.00 0.08 0.08 97 1013.3
20260901030541 73 0 0.0 0.0 0.00 0.08 0.08 97 1013.4
20260901030054 73 0 0.0 0.0 0.00 0.08 0.08 97 1013.2
20260901025538 73 0 0.0 0.0 0.00 0.08 0.08 97 1013.2
20260901025040 73 0 0.0 0.0 0.00 0.08 0.08 97 1013.3
20260901024553 74 0 0.0 0.0 0.00 0.08 0.08 96 1013.3
20260901024035 74 0 0.0 0.0 0.00 0.08 0.08 96 1013.3
20260901023535 74 0 0.0 0.0 0.00 0.08 0.08 96 1013.3
20260901023054 74 0 0.0 0.0 0.00 0.08 0.08 95 1013.3
20260901022536 75 0 0.0 0.0 0.00 0.08 0.08 95 1013.3
20260901022034 75 0 0.0 0.0 0.00 0.08 0.08 95 1013.4
20260901021555 75 0 0.0 0.0 0.00 0.08 0.08 94 1013.3
20260901021038 75 0 0.0 0.0 0.00 0.08 0.08 93 1013.2
20260901020537 76 0 0.0 0.0 0.00 0.08 0.08 92 1013.1
20260901020057 77 0 0.0 1.0 0.00 0.08 0.08 93 1013.2
20260901015538 77 0 0.0 2.0 0.00 0.08 0.08 92 1013.1
20260901015033 77 0 0.0 3.0 0.00 0.08 0.08 92 1013.0
20260901014554 77 201 0.0 3.0 0.00 0.08 0.08 92 1013.0
20260901014034 77 202 1.0 3.0 0.00 0.08 0.08 92 1012.8
20260901013536 77 202 2.0 3.0 0.00 0.08 0.08 92 1012.7
20260901013107 77 202 1.0 3.0 0.00 0.08 0.08 92 1012.7
20260901012537 77 202 2.0 3.0 0.00 0.08 0.08 92 1012.7
20260901012036 78 202 1.0 3.0 0.00 0.08 0.08 92 1012.6
20260901011554 78 0 0.0 3.0 0.00 0.08 0.08 92 1012.5
20260901011034 78 202 1.0 3.0 0.00 0.08 0.08 92 1012.5
20260901010537 78 202 1.0 3.0 0.00 0.08 0.08 91 1012.5